Content
SEND FEEDBACK

Daily
Averages
Monthly
Summary
United Kingdom

LONDON, ENGLAND


Home > Europe > United Kingdom > England
Elevation: 203 feet     Latitude: 51 09N     Longitude: 000 11W

WEATHER
 
SELECT A DAY
Number of Records: 293,798;   Date Range: 7/1/96 - 8/25/14
 
SHARE

PRINT THIS DATA

[ ← Previous Day ]
WEATHER ALMANAC - JANUARY 29, 2014
[ Next Day → ]
[ °C ]   °F
Weather ElementAverageHighLow
Temperature39 °F42.8 °F (1:50 am)37.4 °F (11:20 am)
Dewpoint37.4 °F39.2 °F (12:50 am)35.6 °F (10:50 am)
Humidity93.6 %100 % (7:20 am)87 % (1:50 am)
Barometer29.34 in29.50 in (11:50 pm)29.21 in (12:50 am)
Wind Speed7.6 mph11.5 mph (10:50 am)
Weather ElementAverage
Visibility5.2 mi
Wind DirectionENE (81.3 °)

Weather ElementTotal
Precipitation---
Heating Degree Days24.9 (Base 65)
Averaged from 47 records on January 29, 2014
WEATHER CONDITIONS BREAKOUT
WIND DIRECTION BREAKOUT
WEATHER BY HOUR - JANUARY 29, 2014
[ °C ]   °F
Local TimeTemperatureDewpointHumidityBarometerVisibilityWind DirectionWind SpeedGust SpeedPrecipitationEventsConditions
12:50 AM41.0 °F39.2 °F93 %29.21 in6.2 miESE (120°)5.8 mphRainLight Rain Showers
1:20 AM41.0 °F39.2 °F93 %29.21 in6.2 miESE (120°)6.9 mphMostly Cloudy
1:50 AM42.8 °F39.2 °F87 %29.21 in6.2 miSE (130°)6.9 mphScattered Clouds
2:20 AM41.0 °F39.2 °F93 %29.24 in6.2 miESE (120°)5.8 mphRainLight Rain
2:50 AM41.0 °F39.2 °F93 %29.24 in5.0 miESE (120°)9.2 mphRainLight Rain
3:20 AM41.0 °F39.2 °F93 %29.24 in6.2 miESE (110°)6.9 mphRainLight Rain
3:50 AM41.0 °F39.2 °F93 %29.24 in6.2 miESE (110°)6.9 mphRainLight Rain
4:20 AM41.0 °F39.2 °F93 %29.24 in5.0 miEast (100°)9.2 mphRainLight Rain
4:50 AM41.0 °F39.2 °F93 %29.24 in2.8 miEast (80°)5.8 mphRainLight Rain
5:20 AM41.0 °F39.2 °F93 %29.24 in2.8 miEast (80°)4.6 mphLight Drizzle
5:50 AM41.0 °F39.2 °F93 %29.24 in3.1 miESE (110°)6.9 mphLight Drizzle
6:20 AM41.0 °F39.2 °F93 %29.27 in4.3 miEast (100°)5.8 mphRainLight Rain
6:50 AM41.0 °F39.2 °F93 %29.27 in6.2 miEast (80°)6.9 mphRainLight Rain
7:20 AM39.2 °F39.2 °F100 %29.27 in5.0 miENE (70°)6.9 mphRainLight Rain
7:50 AM39.2 °F39.2 °F100 %29.27 in6.2 miEast (80°)6.9 mphRainLight Rain
8:20 AM39.2 °F39.2 °F100 %29.30 in6.2 miEast (80°)8.1 mphRainLight Rain
8:50 AM39.2 °F39.2 °F100 %29.30 in6.2 miEast (80°)6.9 mphRainLight Rain
9:20 AM39.2 °F39.2 °F100 %29.30 in6.2 miEast (80°)8.1 mphRainLight Rain
9:50 AM39.2 °F37.4 °F93 %29.33 in6.2 miEast (80°)8.1 mphRainLight Rain
10:20 AM39.2 °F37.4 °F93 %29.33 in6.2 miEast (90°)10.4 mphRainLight Rain
10:50 AM39.2 °F35.6 °F87 %29.33 in6.2 miEast (90°)11.5 mphRainLight Rain
11:20 AM37.4 °F35.6 °F93 %29.33 in6.2 miEast (80°)10.4 mphRainLight Rain
11:50 AM37.4 °F35.6 °F93 %29.33 in6.2 miEast (80°)9.2 mphRainLight Rain
12:20 PM37.4 °F35.6 °F93 %29.33 in6.2 miEast (80°)8.1 mphRainLight Rain
12:50 PM37.4 °F35.6 °F93 %29.33 in6.2 miEast (80°)8.1 mphRainLight Rain
1:20 PM39.2 °F37.4 °F93 %29.36 in6.2 miEast (80°)6.9 mphRainLight Rain
1:50 PM39.2 °F37.4 °F93 %29.36 in6.2 miEast (80°)5.8 mphRainLight Rain
2:20 PM39.2 °F37.4 °F93 %29.36 in5.0 miEast (90°)4.6 mphRainLight Rain
2:50 PM39.2 °F37.4 °F93 %29.36 in5.6 miEast (90°)10.4 mphRainLight Rain
3:20 PM39.2 °F37.4 °F93 %29.36 in5.6 miEast (80°)8.1 mphRainLight Rain
3:50 PM39.2 °F37.4 °F93 %29.39 in5.0 miENE (70°)9.2 mphRainLight Rain
4:20 PM37.4 °F35.6 °F93 %29.39 in5.0 miEast (80°)9.2 mphRainLight Rain
4:50 PM37.4 °F35.6 °F93 %29.39 in5.6 miEast (80°)10.4 mphRainLight Rain
5:20 PM37.4 °F35.6 °F93 %29.42 in5.6 miEast (80°)6.9 mphRainLight Rain
5:50 PM37.4 °F35.6 °F93 %29.42 in5.6 miENE (70°)8.1 mphRainLight Rain
6:20 PM37.4 °F35.6 °F93 %29.42 in5.6 miENE (70°)8.1 mphRainLight Rain
6:50 PM37.4 °F37.4 °F100 %29.44 in4.3 miENE (70°)6.9 mphRainLight Rain
7:20 PM39.2 °F37.4 °F93 %29.44 in3.7 miENE (70°)6.9 mphRainLight Rain
7:50 PM39.2 °F37.4 °F93 %29.44 in3.7 miENE (70°)10.4 mphDrizzle
8:20 PM37.4 °F35.6 °F93 %29.44 in3.7 miENE (60°)9.2 mphRainLight Rain
8:50 PM37.4 °F35.6 °F93 %29.47 in3.1 miENE (70°)9.2 mphRainLight Rain
9:20 PM37.4 °F35.6 °F93 %29.47 in3.7 miENE (60°)9.2 mphRainLight Rain
9:50 PM37.4 °F35.6 °F93 %29.47 in4.3 miENE (60°)8.1 mphRainLight Rain
10:20 PM37.4 °F35.6 °F93 %29.47 in3.1 miNNE (30°)4.6 mphLight Drizzle
10:50 PM37.4 °F35.6 °F93 %29.47 inNE (40°)5.8 mphLight Drizzle
11:20 PM37.4 °F35.6 °F93 %29.47 in2.5 miNE (40°)4.6 mphLight Drizzle
11:50 PM37.4 °F35.6 °F93 %29.50 inNNE (30°)4.6 mphRainRain
Hourly data recorded from EGKK, located miles away from London, England







STORIES FROM OUR PARTNERS